Simultaneous Nadir Overpasses (SNOs) Predictions

Prediction of SNOs between METOP-A and NPP Satellite Orbit:

Table of predicted SNOs for the next 14.0 days since TLE Epoch: 6/19/2014
Index Date (METOP-A) Time (METOP-A) Lat,Lon (METOP-A) SZA (METOP-A ) Date (NPP) Time (NPP) Lat,Lon (NPP) SZA (NPP ) Distance(km) Time Diff (sec)
1 06/28/2014 06:22:30 73.76, 78.37 50.53 06/28/2014 06:21:23 73.75, 75.70 50.66 83.08 67
2 06/28/2014 07:13:14 -73.66,-114.55 129.57 06/28/2014 07:12:05 -73.64,-116.72 129.47 67.96 69
3 06/28/2014 08:03:58 73.45, 52.30 50.25 06/28/2014 08:02:47 73.45, 51.03 50.33 40.38 71
4 06/28/2014 08:54:42 -73.34,-140.61 129.84 06/28/2014 08:53:29 -73.34,-141.41 129.79 25.44 73
5 06/28/2014 09:45:25 73.18, 26.36 50.02 06/28/2014 09:44:11 73.15, 26.32 50.01 3.22 74
6 06/28/2014 10:36:07 -73.17,-166.32 129.99 06/28/2014 10:34:55 -73.14,-166.34 130.00 3.55 72
7 06/28/2014 11:26:47 73.16, 0.99 50.01 06/28/2014 11:25:41 73.15, 0.95 50.01 1.59 66
8 06/28/2014 12:17:29 -73.16, 168.30 130.00 06/28/2014 12:16:25 -73.14, 168.28 130.00 1.66 64
9 06/28/2014 13:08:09 73.15, -24.39 49.99 06/28/2014 13:07:11 73.16, -24.43 50.02 1.72 58
10 06/28/2014 13:58:51 -73.14, 142.93 130.01 06/28/2014 13:57:55 -73.15, 142.90 129.99 0.92 56
11 06/28/2014 14:49:31 73.13, -49.77 49.98 06/28/2014 14:48:40 73.11, -49.70 49.97 3.29 51
12 06/28/2014 15:40:13 -73.13, 117.55 130.02 06/28/2014 15:39:25 -73.15, 117.53 129.99 2.63 48
13 06/28/2014 16:30:53 73.11, -75.14 49.97 06/28/2014 16:30:10 73.11, -75.08 49.97 2.18 43
14 06/28/2014 17:21:35 -73.11, 92.18 130.03 06/28/2014 17:20:54 -73.10, 92.26 130.04 2.86 41
15 06/28/2014 18:12:15 73.10,-100.52 49.96 06/28/2014 18:11:40 73.11,-100.46 49.98 2.63 35
16 06/28/2014 19:02:57 -73.09, 66.80 130.04 06/28/2014 19:02:24 -73.10, 66.88 130.03 2.75 33
17 06/28/2014 19:53:36 73.13,-125.79 49.99 06/28/2014 19:53:10 73.11,-125.83 49.98 2.48 26
18 06/28/2014 20:44:18 -73.13, 41.53 130.01 06/28/2014 20:43:54 -73.10, 41.50 130.03 2.84 24
19 06/28/2014 21:34:58 73.11,-151.16 49.98 06/28/2014 21:34:40 73.11,-151.21 49.99 1.58 18
20 06/28/2014 22:25:40 -73.11, 16.16 130.02 06/28/2014 22:25:24 -73.10, 16.12 130.02 1.25 16
21 06/28/2014 23:16:20 73.10,-176.54 49.97 06/28/2014 23:16:10 73.11,-176.59 50.00 2.67 10
22 06/29/2014 00:07:02 -73.09, -9.22 130.03 06/29/2014 00:06:54 -73.11, -9.25 130.02 1.76 8
23 06/29/2014 00:57:42 73.08, 158.09 49.96 06/29/2014 00:57:39 73.07, 158.14 49.95 2.36 3
24 06/29/2014 01:48:24 -73.08, -34.59 130.04 06/29/2014 01:48:23 -73.06, -34.52 130.07 3.23 1
25 06/29/2014 02:39:04 73.06, 132.71 49.95 06/29/2014 02:39:09 73.07, 132.77 49.95 1.91 5
26 06/29/2014 03:29:46 -73.06, -59.97 130.05 06/29/2014 03:29:53 -73.06, -59.90 130.06 2.29 7
27 06/29/2014 04:20:26 73.05, 107.33 49.94 06/29/2014 04:20:39 73.07, 107.39 49.96 3.18 13
28 06/29/2014 05:11:08 -73.04, -85.34 130.06 06/29/2014 05:11:23 -73.06, -85.28 130.05 2.84 15
29 06/29/2014 06:01:47 73.08, 82.07 49.97 06/29/2014 06:02:09 73.07, 82.01 49.96 2.06 22
30 06/29/2014 06:52:29 -73.08,-110.61 130.03 06/29/2014 06:52:53 -73.06,-110.65 130.05 2.26 24
31 06/29/2014 07:43:09 73.06, 56.69 49.96 06/29/2014 07:43:39 73.07, 56.63 49.97 2.21 30
32 06/29/2014 08:33:51 -73.06,-135.99 130.04 06/29/2014 08:34:23 -73.06,-136.03 130.04 1.46 32
33 06/29/2014 09:24:31 73.05, 31.31 49.95 06/29/2014 09:25:08 73.02, 31.36 49.92 2.90 37
34 06/29/2014 10:15:13 -73.04,-161.36 130.05 06/29/2014 10:15:53 -73.06,-161.41 130.04 2.69 40
35 06/29/2014 11:05:53 73.03, 5.94 49.94 06/29/2014 11:06:38 73.03, 5.99 49.93 1.57 45
36 06/29/2014 11:56:35 -73.03, 173.26 130.06 06/29/2014 11:57:22 -73.02, 173.32 130.09 2.37 47
37 06/29/2014 12:47:15 73.01, -19.44 49.93 06/29/2014 12:48:08 73.03, -19.39 49.93 2.21 53
38 06/29/2014 13:37:57 -73.01, 147.89 130.07 06/29/2014 13:38:52 -73.02, 147.94 130.08 1.99 55
39 06/29/2014 14:28:36 73.05, -44.70 49.96 06/29/2014 14:29:38 73.03, -44.77 49.94 2.87 62
40 06/29/2014 15:19:19 -73.00, 122.51 130.08 06/29/2014 15:20:22 -73.02, 122.57 130.07 3.22 63
41 06/29/2014 16:09:58 73.03, -70.08 49.95 06/29/2014 16:11:08 73.03, -70.15 49.94 2.20 70
42 06/29/2014 17:00:40
